World > North America > United States > Illinois

Hourly Millersville, IL Regional Weather

Feedback E-mail the Weather

Quick WX

Millersville, IL Weather Maps

°F °C°F °C
Millersville Weather Map
UTC Time: 7/2/2022, 04:48
Your Time:

Millersville, IL Regional Weather

Expires:202207020500;;530348
ASUS43 KLOT 020409
RWRIL 

ILLINOIS REGIONAL WEATHER ROUNDUP
NATIONAL WEATHER SERVICE CHICAGO/ROMEOVILLE IL
1100 PM CDT FRI JUL 01 2022

NOTE: "FAIR" INDICATES FEW OR NO CLOUDS BELOW 12,000 FEET WITH NO
SIGNIFICANT WEATHER AND/OR OBSTRUCTIONS TO VISIBILITY.

* THESE STATIONS ARE NOT UNDER NWS QUALITY CONTROL. THEY ALSO MAY NOT
  REPORT WEATHER SUCH AS PRECIPITATION OR FOG.


ILZ028>032-037-038-041>044-048-051>054-059>061-020500-
CENTRAL ILLINOIS
  
CITY           SKY/WX    TMP DP  RH WIND       PRES   REMARKS
PONTIAC        PTCLDY    68  67  98 CALM      30.02R                  
BLOOMINGTON    MOCLDY    70  66  87 NW8G18    30.03R                  
DECATUR        CLOUDY    74  71  91 NW3       30.02R                  
PEORIA         MOCLDY    71  68  90 CALM      30.01R                  
LACON*         CLEAR     66  66 100 CALM      30.00S                  
LINCOLN*       CLOUDY    73  73 100 CALM      30.01S                  
SPRINGFIELD    MOCLDY    73  67  81 N5        30.01R                  
TAYLORVILLE    CLOUDY    72  70  93 W8        30.02R                  
$$


SKY/WX - Weather  TMP - Temperature  DP - Dew Point  RH - Humidity
WIND - Wind Direction/Speed PRES - Barometric Pressure VSB - Visibility
WCI - Wind Chill Index E13G22 Wind - East Wind 13 mph/Gusts of 22 mph

Trending Headlines

Millersville Radar Loop



Millersville Quick Facts


National Two Day Weather Forecast


E-mail the Millersville Weather Forecast

Voice your opinion or tell us about page issues...